This is the latest recevied weather packets stored in our database for station/object DJ3AN. If no packets are shown the sender has not sent any weather packets the latest 10 day(s).
| Time | Temp. | Humidity | Pressure | Rain* | Wind** | Luminosity | Snow |
|---|---|---|---|---|---|---|---|
| 1777549505 | 20° C | 33% | 1030.7 hPa | 0 mm | - | - | - |
| 1777549205 | 20° C | 32% | 1030.8 hPa | 0 mm | - | - | - |
| 1777548905 | 20° C | 35% | 1030.8 hPa | 0 mm | - | - | - |
| 1777548605 | 19.44° C | 36% | 1030.9 hPa | 0 mm | - | - | - |
| 1777548305 | 19.44° C | 38% | 1031 hPa | 0 mm | - | - | - |
| 1777548005 | 18.89° C | 35% | 1031 hPa | 0 mm | - | - | - |
| 1777547706 | 18.89° C | 35% | 1031 hPa | 0 mm | - | - | - |
| 1777547405 | 18.89° C | 35% | 1031.1 hPa | 0 mm | - | - | - |
| 1777547105 | 18.33° C | 38% | 1031.1 hPa | 0 mm | - | - | - |
| 1777546805 | 18.33° C | 36% | 1031.2 hPa | 0 mm | - | - | - |
| 1777546505 | 18.33° C | 38% | 1031.2 hPa | 0 mm | - | - | - |
| 1777546206 | 18.33° C | 39% | 1031.4 hPa | 0 mm | - | - | - |
| 1777545905 | 18.33° C | 37% | 1031.4 hPa | 0 mm | - | - | - |
| 1777545605 | 18.33° C | 37% | 1031.4 hPa | 0 mm | - | - | - |
| 1777545305 | 17.78° C | 38% | 1031.5 hPa | 0 mm | - | - | - |
| 1777545005 | 17.78° C | 39% | 1031.6 hPa | 0 mm | - | - | - |
| 1777544706 | 17.22° C | 38% | 1031.6 hPa | 0 mm | - | - | - |
| 1777544405 | 17.22° C | 37% | 1031.7 hPa | 0 mm | - | - | - |
| 1777544105 | 17.78° C | 37% | 1031.7 hPa | 0 mm | - | - | - |
| 1777543805 | 17.22° C | 41% | 1031.6 hPa | 0 mm | - | - | - |
| 1777543505 | 17.22° C | 40% | 1031.7 hPa | 0 mm | - | - | - |
| 1777543205 | 17.22° C | 38% | 1031.7 hPa | 0 mm | - | - | - |
| 1777542905 | 16.67° C | 40% | 1031.7 hPa | 0 mm | - | - | - |
| 1777542606 | 16.67° C | 39% | 1031.8 hPa | 0 mm | - | - | - |
| 1777542306 | 16.11° C | 39% | 1031.8 hPa | 0 mm | - | - | - |
* Rain latest hour (hover to see other rain measurements)
** Current wind speed in m/s (hover to see current wind gust speed)